,,Stat6,,Stat2,,Stat8,,Stat9,,Stat10,,Wind1,,Wind1,
time,status,PA1M_AVG,status,PR1M_SUM,status,RH1M_AVG,status,SR1M_AVG,status,TA1M_AVG,status,W1dAve1m,status,W1sAve1m,
2004-09-23, 00:00:00,VALID,917.585,VALID,0,VALID,100,VALID,0,VALID,19.9285,VALID,256,VALID,0.356517,
2004-09-23, 00:01:00,VALID,917.603,VALID,0,VALID,100,VALID,0.0169808,VALID,19.9442,VALID,256,VALID,0.230841,
2004-09-23, 00:02:00,VALID,917.62,VALID,0,VALID,100,VALID,0.0339617,VALID,19.9466,VALID,322,VALID,0.270232,
2004-09-23, 00:03:00,VALID,917.621,VALID,0,VALID,100,VALID,0.0339617,VALID,19.963,VALID,9,VALID,0.176781,
2004-09-23, 00:04:00,VALID,917.615,VALID,0,VALID,100,VALID,0.0169808,VALID,19.9536,VALID,9,VALID,0,
2004-09-23, 00:05:00,VALID,917.61,VALID,0,VALID,100,VALID,0,VALID,19.937,VALID,332,VALID,0.295878,
2004-09-23, 00:06:00,VALID,917.592,VALID,0,VALID,100,VALID,0,VALID,19.973,VALID,257,VALID,0.5125,
2004-09-23, 00:07:00,VALID,917.582,VALID,0,VALID,100,VALID,0,VALID,20.0252,VALID,253,VALID,0.443407,
2004-09-23, 00:08:00,VALID,917.562,VALID,0,VALID,100,VALID,0.0169808,VALID,20.0309,VALID,252,VALID,0.0262784,
2004-09-23, 00:09:00,VALID,917.552,VALID,0,VALID,100,VALID,0,VALID,20.0473,VALID,244,VALID,0.230291,
2004-09-23, 00:10:00,VALID,917.537,VALID,0,VALID,100,VALID,0,VALID,20.044,VALID,231,VALID,0.270198,
2004-09-23, 00:11:00,VALID,917.537,VALID,0,VALID,100,VALID,0,VALID,20.0445,VALID,231,VALID,0,
2004-09-23, 00:12:00,VALID,917.537,VALID,0,VALID,100,VALID,0.0169808,VALID,20.0246,VALID,231,VALID,0.00053267,
2004-09-23, 00:13:00,VALID,917.5,VALID,0,VALID,100,VALID,0,VALID,20.002,VALID,267,VALID,0.291016,
2004-09-23, 00:14:00,VALID,917.47,VALID,0,VALID,100,VALID,0.0339617,VALID,19.963,VALID,344,VALID,0.400112,
2004-09-23, 00:15:00,VALID,917.45,VALID,0,VALID,100,VALID,0.0509425,VALID,19.9692,VALID,330,VALID,0.232851,
2004-09-23, 00:16:00,VALID,917.446,VALID,0,VALID,100,VALID,0.0339617,VALID,20.0117,VALID,299,VALID,0.206676,
2004-09-23, 00:17:00,VALID,917.428,VALID,0,VALID,100,VALID,0,VALID,20.0413,VALID,258,VALID,0.165777,
2004-09-23, 00:18:00,VALID,917.407,VALID,0,VALID,100,VALID,0.0169808,VALID,20.0478,VALID,258,VALID,0.0708333,
2004-09-23, 00:19:01,VALID,917.397,VALID,0,VALID,100,VALID,0.0339617,VALID,20.0408,VALID,208,VALID,0.0387153,
2004-09-23, 00:20:01,VALID,917.367,VALID,0,VALID,100,VALID,0.0169808,VALID,20.0145,VALID,185,VALID,0.0828125,
2004-09-23, 00:21:00,VALID,917.352,VALID,0,VALID,100,VALID,0,VALID,19.9864,VALID,161,VALID,0.0494186,
2004-09-23, 00:22:00,VALID,917.317,VALID,0,VALID,100,VALID,0,VALID,19.9312,VALID,161,VALID,0,
2004-09-23, 00:23:00,VALID,917.292,VALID,0,VALID,100,VALID,0.0169808,VALID,19.9019,VALID,161,VALID,0,
2004-09-23, 00:24:01,VALID,917.242,VALID,0,VALID,100,VALID,0,VALID,19.9439,VALID,187,VALID,0.214939,
2004-09-23, 00:25:00,VALID,917.227,VALID,0,VALID,100,VALID,0.0339617,VALID,20.0085,VALID,198,VALID,0.158253,
2004-09-23, 00:26:01,VALID,917.183,VALID,0,VALID,100,VALID,-0.101885,VALID,19.9549,VALID,181,VALID,0.18125,
2004-09-23, 00:27:00,VALID,917.146,VALID,0,VALID,100,VALID,-0.0849042,VALID,19.8962,VALID,178,VALID,0.158067,
2004-09-23, 00:28:00,VALID,917.112,VALID,0,VALID,100,VALID,-0.101885,VALID,19.9298,VALID,193,VALID,0.225195,
2004-09-23, 00:29:00,VALID,917.088,VALID,0,VALID,100,VALID,-0.101885,VALID,19.9715,VALID,224,VALID,0.567649,
2004-09-23, 00:30:01,VALID,917.079,VALID,0,VALID,100,VALID,-0.0679233,VALID,20.0028,VALID,216,VALID,0.287246,
2004-09-23, 00:31:01,VALID,917.082,VALID,0,VALID,100,VALID,-0.0849042,VALID,20.0192,VALID,194,VALID,0.313643,
2004-09-23, 00:32:00,VALID,917.066,VALID,0,VALID,100,VALID,-0.0849042,VALID,20.0227,VALID,194,VALID,0.194754,
2004-09-23, 00:33:00,VALID,917.061,VALID,0,VALID,100,VALID,-0.0679233,VALID,20.055,VALID,214,VALID,0.371094,
2004-09-23, 00:34:00,VALID,917.052,VALID,0,VALID,99.9324,VALID,-0.0679233,VALID,20.0652,VALID,210,VALID,0.0675872,
2004-09-23, 00:35:01,VALID,917.032,VALID,0,VALID,99.6556,VALID,-0.0679233,VALID,20.0262,VALID,173,VALID,0.0358356,
2004-09-23, 00:36:00,VALID,916.991,VALID,0,VALID,99.5577,VALID,-0.101885,VALID,20.0001,VALID,179,VALID,0.0244391,
2004-09-23, 00:37:01,VALID,916.963,VALID,0,VALID,99.5298,VALID,-0.0849042,VALID,20.0001,VALID,253,VALID,0.368676,
2004-09-23, 00:38:00,VALID,916.937,VALID,0,VALID,99.4814,VALID,-0.0849042,VALID,20.02,VALID,257,VALID,0.1121,
2004-09-23, 00:39:00,VALID,916.915,VALID,0,VALID,99.3619,VALID,-0.0849042,VALID,20.0684,VALID,294,VALID,0.417597,
2004-09-23, 00:40:00,VALID,916.91,VALID,0,VALID,99.1699,VALID,-0.0849042,VALID,20.0878,VALID,296,VALID,0.43564,
2004-09-23, 00:41:01,VALID,916.885,VALID,0,VALID,98.9436,VALID,-0.0679233,VALID,20.097,VALID,291,VALID,0.545072,
2004-09-23, 00:42:00,VALID,916.871,VALID,0,VALID,98.763,VALID,-0.101885,VALID,20.1198,VALID,269,VALID,0.225109,
2004-09-23, 00:43:00,VALID,916.861,VALID,0,VALID,98.3523,VALID,-0.0849042,VALID,20.091,VALID,269,VALID,0.216146,
2004-09-23, 00:44:00,VALID,916.84,VALID,0,VALID,98.6714,VALID,-0.0679233,VALID,20.1099,VALID,269,VALID,0.255078,
2004-09-23, 00:45:00,VALID,916.844,VALID,0,VALID,98.7007,VALID,-0.0849042,VALID,20.1233,VALID,265,VALID,0.0356105,
2004-09-23, 00:46:00,VALID,916.83,VALID,0,VALID,98.3548,VALID,-0.0339617,VALID,20.0908,VALID,165,VALID,0.350654,
2004-09-23, 00:47:00,VALID,916.821,VALID,0,VALID,98.412,VALID,-0.0509425,VALID,20.055,VALID,164,VALID,0.131541,
2004-09-23, 00:48:00,VALID,916.83,VALID,0,VALID,98.4921,VALID,-0.0509425,VALID,20.0522,VALID,164,VALID,0.194922,
2004-09-23, 00:49:00,VALID,916.826,VALID,0,VALID,98.4629,VALID,-0.101885,VALID,20.0197,VALID,173,VALID,0.265244,
2004-09-23, 00:50:01,VALID,916.833,VALID,0,VALID,98.4667,VALID,-0.101885,VALID,20.0135,VALID,176,VALID,0.25279,
2004-09-23, 00:51:01,VALID,916.836,VALID,0,VALID,98.4832,VALID,-0.0679233,VALID,20.0063,VALID,208,VALID,0.145089,
2004-09-23, 00:52:00,VALID,916.832,VALID,0,VALID,98.295,VALID,-0.0849042,VALID,20.0393,VALID,227,VALID,0.340039,
2004-09-23, 00:53:00,VALID,916.828,VALID,0,VALID,97.9415,VALID,-0.0849042,VALID,20.0749,VALID,259,VALID,0.261719,
2004-09-23, 00:54:00,VALID,916.836,VALID,0,VALID,97.5779,VALID,-0.101885,VALID,20.1173,VALID,250,VALID,0.133194,
2004-09-23, 00:55:00,VALID,916.826,VALID,0,VALID,97.2269,VALID,-0.101885,VALID,20.1621,VALID,248,VALID,0.0769817,
2004-09-23, 00:56:00,VALID,916.82,VALID,0,VALID,96.9052,VALID,-0.0679233,VALID,20.1876,VALID,248,VALID,0.198828,
2004-09-23, 00:57:00,VALID,916.813,VALID,0,VALID,96.661,VALID,-0.0679233,VALID,20.2142,VALID,248,VALID,0.00279018,
2004-09-23, 00:58:00,VALID,916.8,VALID,0,VALID,96.3584,VALID,-0.0679233,VALID,20.1971,VALID,248,VALID,0,
2004-09-23, 00:59:00,VALID,916.793,VALID,0,VALID,96.2032,VALID,-0.0679233,VALID,20.175,VALID,248,VALID,0.00109012,
2004-09-23, 01:00:00,VALID,916.77,VALID,0,VALID,96.1689,VALID,-0.0339617,VALID,20.1524,VALID,248,VALID,0,
2004-09-23, 01:01:00,VALID,916.75,VALID,0,VALID,95.9248,VALID,-0.0849042,VALID,20.1032,VALID,248,VALID,0.000726744,
2004-09-23, 01:02:00,VALID,916.698,VALID,0,VALID,94.9189,VALID,-0.0509425,VALID,19.9554,VALID,287,VALID,0.426599,
2004-09-23, 01:03:00,VALID,916.646,VALID,0,VALID,96.53,VALID,-0.101885,VALID,19.9164,VALID,306,VALID,0.664608,
2004-09-23, 01:04:00,VALID,916.644,VALID,0,VALID,97.1824,VALID,-0.0679233,VALID,19.9293,VALID,314,VALID,0.137005,
2004-09-23, 01:05:00,VALID,916.629,VALID,0,VALID,96.7831,VALID,-0.0509425,VALID,19.9029,VALID,68,VALID,0.828852,
2004-09-23, 01:06:01,VALID,916.589,VALID,0,VALID,96.9891,VALID,-0.0679233,VALID,19.8518,VALID,66,VALID,0.387962,
2004-09-23, 01:07:00,VALID,916.554,VALID,0,VALID,97.1608,VALID,-0.0679233,VALID,19.8095,VALID,66,VALID,0,
2004-09-23, 01:08:01,VALID,916.537,VALID,0,VALID,97.1709,VALID,-0.0849042,VALID,19.7735,VALID,66,VALID,0,
2004-09-23, 01:09:01,VALID,916.518,VALID,0,VALID,97.0883,VALID,-0.0679233,VALID,19.7415,VALID,66,VALID,0,
2004-09-23, 01:10:00,VALID,916.506,VALID,0,VALID,97.2294,VALID,-0.0849042,VALID,19.7161,VALID,88,VALID,0.525981,
2004-09-23, 01:11:01,VALID,916.492,VALID,0,VALID,97.5321,VALID,-0.0509425,VALID,19.6997,VALID,107,VALID,0.452415,
2004-09-23, 01:12:00,VALID,916.49,VALID,0,VALID,97.9072,VALID,-0.0509425,VALID,19.7124,VALID,107,VALID,0.106889,
2004-09-23, 01:13:00,VALID,916.485,VALID,0,VALID,97.808,VALID,-0.0679233,VALID,19.7223,VALID,107,VALID,0.116186,
2004-09-23, 01:14:00,VALID,916.491,VALID,0,VALID,97.7877,VALID,-0.0679233,VALID,19.735,VALID,149,VALID,0.255149,
2004-09-23, 01:15:00,VALID,916.492,VALID,0,VALID,97.658,VALID,-0.0509425,VALID,19.7449,VALID,186,VALID,0.0727896,
2004-09-23, 01:16:00,VALID,916.487,VALID,0,VALID,97.4939,VALID,-0.0509425,VALID,19.768,VALID,182,VALID,0.305414,
2004-09-23, 01:17:00,VALID,916.475,VALID,0,VALID,97.1035,VALID,-0.0509425,VALID,19.7544,VALID,174,VALID,0.704901,
2004-09-23, 01:18:01,VALID,916.454,VALID,0,VALID,96.8009,VALID,-0.0679233,VALID,19.7517,VALID,174,VALID,0.683117,
2004-09-23, 01:19:00,VALID,916.422,VALID,0,VALID,97.0603,VALID,-0.0509425,VALID,19.7549,VALID,171,VALID,0.969295,
2004-09-23, 01:20:01,VALID,916.389,VALID,0,VALID,96.3012,VALID,-0.0339617,VALID,19.7574,VALID,164,VALID,0.454241,
2004-09-23, 01:21:01,VALID,916.377,VALID,0,VALID,95.6412,VALID,-0.0679233,VALID,19.7775,VALID,165,VALID,0.101381,
2004-09-23, 01:22:00,VALID,916.342,VALID,0,VALID,95.4924,VALID,-0.0849042,VALID,19.7745,VALID,165,VALID,0.150724,
2004-09-23, 01:23:00,VALID,916.317,VALID,0,VALID,95.631,VALID,-0.0849042,VALID,19.7447,VALID,165,VALID,0.0633878,
2004-09-23, 01:24:00,VALID,916.304,VALID,0,VALID,96.015,VALID,-0.0509425,VALID,19.7348,VALID,164,VALID,0.0918899,
2004-09-23, 01:25:01,VALID,916.298,VALID,0,VALID,96.221,VALID,-0.0509425,VALID,19.7189,VALID,163,VALID,0.00892857,
2004-09-23, 01:26:00,VALID,916.28,VALID,0,VALID,96.4143,VALID,-0.0509425,VALID,19.6965,VALID,163,VALID,0,
2004-09-23, 01:27:01,VALID,916.282,VALID,0,VALID,96.6013,VALID,-0.0509425,VALID,19.6873,VALID,163,VALID,0,
2004-09-23, 01:28:00,VALID,916.28,VALID,0,VALID,96.8492,VALID,-0.0339617,VALID,19.6669,VALID,163,VALID,0.125953,
2004-09-23, 01:29:01,VALID,916.276,VALID,0,VALID,97.0794,VALID,-0.0509425,VALID,19.6965,VALID,163,VALID,0,
2004-09-23, 01:30:00,VALID,916.281,VALID,0,VALID,96.8518,VALID,-0.0679233,VALID,19.69,VALID,163,VALID,0,
2004-09-23, 01:31:00,VALID,916.297,VALID,0,VALID,96.7132,VALID,-0.0509425,VALID,19.6774,VALID,163,VALID,0,
2004-09-23, 01:32:00,VALID,916.307,VALID,0,VALID,96.5669,VALID,-0.0679233,VALID,19.6518,VALID,163,VALID,0,
2004-09-23, 01:33:00,VALID,916.319,VALID,0,VALID,95.6476,VALID,-0.0679233,VALID,19.538,VALID,96,VALID,0.298913,
2004-09-23, 01:34:00,VALID,916.326,VALID,0,VALID,95.9438,VALID,-0.0339617,VALID,19.4513,VALID,65,VALID,0.527058,
2004-09-23, 01:35:01,VALID,916.32,VALID,0,VALID,96.4792,VALID,-0.0849042,VALID,19.3962,VALID,63,VALID,0.392442,
2004-09-23, 01:36:00,VALID,916.332,VALID,0,VALID,96.6521,VALID,-0.0509425,VALID,19.3416,VALID,61,VALID,0.305043,
2004-09-23, 01:37:00,VALID,916.321,VALID,0,VALID,96.6152,VALID,-0.101885,VALID,19.2549,VALID,61,VALID,0.244618,
2004-09-23, 01:38:00,VALID,916.321,VALID,0,VALID,96.5211,VALID,-0.101885,VALID,19.1473,VALID,61,VALID,0,
2004-09-23, 01:39:01,VALID,916.332,VALID,0,VALID,96.8861,VALID,-0.0679233,VALID,19.083,VALID,61,VALID,0,
2004-09-23, 01:40:00,VALID,916.327,VALID,0,VALID,97.6058,VALID,-0.0679233,VALID,19.0736,VALID,61,VALID,0,
2004-09-23, 01:41:00,VALID,916.33,VALID,0,VALID,98.192,VALID,0.0509425,VALID,19.088,VALID,61,VALID,0,
2004-09-23, 01:42:00,VALID,916.328,VALID,0,VALID,98.59,VALID,0,VALID,19.1243,VALID,61,VALID,0,
2004-09-23, 01:43:00,VALID,916.336,VALID,0,VALID,98.7121,VALID,0.0509425,VALID,19.1496,VALID,61,VALID,0.0414063,
2004-09-23, 01:44:01,VALID,916.348,VALID,0,VALID,98.1984,VALID,0.0679233,VALID,19.1074,VALID,61,VALID,0.176389,
2004-09-23, 01:45:00,VALID,916.356,VALID,0,VALID,98.206,VALID,0.0509425,VALID,19.0823,VALID,61,VALID,0.135298,
2004-09-23, 01:46:01,VALID,916.375,VALID,0,VALID,98.0687,VALID,0.0339617,VALID,19.0267,VALID,61,VALID,0.0150923,
2004-09-23, 01:47:00,VALID,916.401,VALID,0,VALID,97.705,VALID,0.0679233,VALID,18.9591,VALID,61,VALID,0,
2004-09-23, 01:48:00,VALID,916.416,VALID,0,VALID,97.644,VALID,0.0339617,VALID,18.8916,VALID,61,VALID,0.146391,
2004-09-23, 01:49:00,VALID,916.432,VALID,0,VALID,98.2391,VALID,0.0339617,VALID,18.8883,VALID,61,VALID,0.198518,
2004-09-23, 01:50:00,VALID,916.455,VALID,0,VALID,98.8901,VALID,0.0339617,VALID,18.9301,VALID,61,VALID,0.182776,
2004-09-23, 01:51:01,VALID,916.454,VALID,0,VALID,99.2564,VALID,0.0169808,VALID,18.9854,VALID,61,VALID,0.27983,
2004-09-23, 01:52:01,VALID,916.453,VALID,0,VALID,99.4751,VALID,0.0339617,VALID,19.0242,VALID,61,VALID,0.255208,
2004-09-23, 01:53:01,VALID,916.453,VALID,0,VALID,99.5094,VALID,0,VALID,19.0472,VALID,61,VALID,0.24295,
2004-09-23, 01:54:01,VALID,916.448,VALID,0,VALID,99.6633,VALID,0.0509425,VALID,19.0696,VALID,61,VALID,0.0405869,
2004-09-23, 01:55:01,VALID,916.433,VALID,0,VALID,99.737,VALID,0.0339617,VALID,19.089,VALID,61,VALID,0,
2004-09-23, 01:56:00,VALID,916.425,VALID,0,VALID,99.8108,VALID,0.0339617,VALID,19.1185,VALID,61,VALID,0,
2004-09-23, 01:57:01,VALID,916.396,VALID,0,VALID,99.7904,VALID,0.0339617,VALID,19.1312,VALID,61,VALID,0,
2004-09-23, 01:58:01,VALID,916.37,VALID,0,VALID,99.8184,VALID,0.0509425,VALID,19.1213,VALID,66,VALID,0.25186,
2004-09-23, 01:59:01,VALID,916.345,VALID,0,VALID,99.8019,VALID,0.0339617,VALID,19.1431,VALID,85,VALID,0.545351,
2004-09-23, 02:00:01,VALID,916.322,VALID,0,VALID,99.9041,VALID,0.0339617,VALID,19.1402,VALID,88,VALID,0.6982,
2004-09-23, 02:01:01,VALID,916.293,VALID,0,VALID,99.9629,VALID,0.0509425,VALID,19.1595,VALID,88,VALID,0.609003,
2004-09-23, 02:02:01,VALID,916.274,VALID,0,VALID,100,VALID,0,VALID,19.1893,VALID,89,VALID,0.798874,
2004-09-23, 02:03:01,VALID,916.252,VALID,0,VALID,100,VALID,0.0169808,VALID,19.2765,VALID,89,VALID,0.881882,
2004-09-23, 02:04:00,VALID,916.226,VALID,0,VALID,100,VALID,0.0339617,VALID,19.3602,VALID,89,VALID,0.872768,
2004-09-23, 02:05:01,VALID,916.213,VALID,0,VALID,100,VALID,0.0169808,VALID,19.4183,VALID,88,VALID,0.770089,
2004-09-23, 02:06:00,VALID,916.189,VALID,0,VALID,100,VALID,0,VALID,19.4409,VALID,88,VALID,0.605655,
2004-09-23, 02:07:00,VALID,916.166,VALID,0,VALID,99.9817,VALID,0.0679233,VALID,19.4409,VALID,83,VALID,0.664435,
2004-09-23, 02:08:00,VALID,916.145,VALID,0,VALID,99.6455,VALID,0.0339617,VALID,19.4119,VALID,76,VALID,0.725419,
2004-09-23, 02:09:00,VALID,916.121,VALID,0,VALID,99.3556,VALID,0.0679233,VALID,19.3602,VALID,74,VALID,0.882102,
2004-09-23, 02:10:01,VALID,916.09,VALID,0,VALID,98.9919,VALID,0.0169808,VALID,19.3083,VALID,61,VALID,0.776677,
2004-09-23, 02:11:01,VALID,916.069,VALID,0,VALID,98.0115,VALID,-0.0509425,VALID,19.1483,VALID,61,VALID,0.870094,
2004-09-23, 02:12:01,VALID,916.064,VALID,0,VALID,98.5557,VALID,-0.0169808,VALID,19.0902,VALID,62,VALID,1.1066,
2004-09-23, 02:13:01,VALID,916.059,VALID,0,VALID,99.1534,VALID,-0.0169808,VALID,19.1257,VALID,62,VALID,0.808416,
2004-09-23, 02:14:01,VALID,916.051,VALID,0,VALID,99.2119,VALID,-0.0679233,VALID,19.1324,VALID,63,VALID,0.695313,
2004-09-23, 02:15:01,VALID,916.058,VALID,0,VALID,98.8952,VALID,-0.0849042,VALID,19.1003,VALID,61,VALID,0.678544,
2004-09-23, 02:16:01,VALID,916.068,VALID,0,VALID,98.7592,VALID,-0.0679233,VALID,19.0293,VALID,55,VALID,0.800327,
2004-09-23, 02:17:01,VALID,916.073,VALID,0,VALID,98.7643,VALID,-0.0509425,VALID,18.9799,VALID,55,VALID,0.826451,
2004-09-23, 02:18:01,VALID,916.07,VALID,0,VALID,99.1012,VALID,-0.0679233,VALID,18.9608,VALID,63,VALID,0.811384,
2004-09-23, 02:19:00,VALID,916.079,VALID,0,VALID,99.9255,VALID,-0.0679233,VALID,19.0413,VALID,90,VALID,0.985102,
2004-09-23, 02:20:01,VALID,916.069,VALID,0,VALID,99.9496,VALID,-0.0339617,VALID,19.1612,VALID,114,VALID,1.10472,
2004-09-23, 02:21:01,VALID,916.064,VALID,0,VALID,99.6824,VALID,-0.0339617,VALID,19.1384,VALID,129,VALID,1.24163,
2004-09-23, 02:22:01,VALID,916.06,VALID,0,VALID,99.7002,VALID,-0.0169808,VALID,19.1088,VALID,131,VALID,1.26803,
2004-09-23, 02:23:01,VALID,916.046,VALID,0,VALID,99.7154,VALID,-0.0169808,VALID,19.1096,VALID,134,VALID,1.40927,
2004-09-23, 02:24:01,VALID,916.031,VALID,0,VALID,99.7523,VALID,-0.0169808,VALID,19.1033,VALID,136,VALID,1.3125,
2004-09-23, 02:25:01,VALID,916.023,VALID,0,VALID,99.8299,VALID,-0.0509425,VALID,19.0835,VALID,128,VALID,1.31741,
2004-09-23, 02:26:01,VALID,916.022,VALID,0,VALID,99.8833,VALID,0.0679233,VALID,19.0659,VALID,128,VALID,1.15988,
2004-09-23, 02:27:01,VALID,916.003,VALID,0,VALID,99.9634,VALID,0.0679233,VALID,19.0562,VALID,129,VALID,1.24648,
2004-09-23, 02:28:01,VALID,915.992,VALID,0,VALID,100,VALID,0.0509425,VALID,19.0532,VALID,134,VALID,1.0694,
2004-09-23, 02:29:01,VALID,915.98,VALID,0,VALID,100,VALID,0.101885,VALID,19.05,VALID,140,VALID,0.998001,
2004-09-23, 02:30:01,VALID,915.974,VALID,0,VALID,99.9977,VALID,0.101885,VALID,19.0301,VALID,138,VALID,0.853924,
2004-09-23, 02:31:01,VALID,915.961,VALID,0,VALID,99.9941,VALID,0.101885,VALID,19.008,VALID,129,VALID,0.861281,
2004-09-23, 02:32:01,VALID,915.948,VALID,0,VALID,99.9893,VALID,0.0339617,VALID,18.9951,VALID,126,VALID,0.698171,
2004-09-23, 02:33:01,VALID,915.968,VALID,0,VALID,99.9545,VALID,0.0679233,VALID,18.9757,VALID,124,VALID,0.629616,
2004-09-23, 02:34:01,VALID,915.971,VALID,0,VALID,99.9853,VALID,0.0509425,VALID,18.969,VALID,126,VALID,1.00186,
2004-09-23, 02:35:01,VALID,915.989,VALID,0,VALID,100,VALID,0.0339617,VALID,19.0018,VALID,122,VALID,0.774368,
2004-09-23, 02:36:01,VALID,916.012,VALID,0,VALID,100,VALID,0.0849042,VALID,19.011,VALID,122,VALID,0.721467,
2004-09-23, 02:37:01,VALID,916.017,VALID,0,VALID,99.9189,VALID,0.0169808,VALID,19.0209,VALID,120,VALID,0.421303,
2004-09-23, 02:38:01,VALID,916.039,VALID,0,VALID,99.8973,VALID,0.0169808,VALID,19.0214,VALID,107,VALID,0.578536,
2004-09-23, 02:39:01,VALID,916.043,VALID,0,VALID,99.8578,VALID,-0.0169808,VALID,19.0224,VALID,106,VALID,0.402951,
2004-09-23, 02:40:01,VALID,916.038,VALID,0,VALID,99.7167,VALID,-0.0849042,VALID,19.0249,VALID,129,VALID,0.382267,
2004-09-23, 02:41:00,VALID,916.032,VALID,0,VALID,99.6442,VALID,-0.0169808,VALID,19.0254,VALID,129,VALID,0.34375,
2004-09-23, 02:42:00,VALID,916.025,VALID,0,VALID,99.6264,VALID,-0.0679233,VALID,19.0318,VALID,129,VALID,0.217478,
2004-09-23, 02:43:00,VALID,916.044,VALID,0,VALID,99.6111,VALID,-0.0509425,VALID,19.0445,VALID,129,VALID,0.234885,
2004-09-23, 02:44:00,VALID,916.047,VALID,0,VALID,99.4878,VALID,-0.0339617,VALID,19.0646,VALID,129,VALID,0.122904,
2004-09-23, 02:45:00,VALID,916.064,VALID,0,VALID,99.3912,VALID,-0.0339617,VALID,19.0745,VALID,129,VALID,0.150073,
2004-09-23, 02:46:00,VALID,916.07,VALID,0,VALID,99.2907,VALID,-0.0509425,VALID,19.0842,VALID,129,VALID,0,
2004-09-23, 02:47:00,VALID,916.072,VALID,0,VALID,99.2487,VALID,-0.0509425,VALID,19.084,VALID,129,VALID,0,
2004-09-23, 02:48:00,VALID,916.064,VALID,0,VALID,98.8787,VALID,-0.0339617,VALID,19.0544,VALID,129,VALID,0,
2004-09-23, 02:49:00,VALID,916.07,VALID,0,VALID,98.5583,VALID,-0.101885,VALID,18.9834,VALID,129,VALID,0,
2004-09-23, 02:50:00,VALID,916.063,VALID,0,VALID,98.5773,VALID,-0.0849042,VALID,18.9551,VALID,129,VALID,0,
2004-09-23, 02:51:00,VALID,916.062,VALID,0,VALID,98.5875,VALID,-0.0509425,VALID,18.9258,VALID,129,VALID,0,
2004-09-23, 02:52:00,VALID,916.051,VALID,0,VALID,98.5761,VALID,-0.0339617,VALID,18.9032,VALID,129,VALID,0,
2004-09-23, 02:53:00,VALID,916.039,VALID,0,VALID,98.7693,VALID,-0.0339617,VALID,18.9096,VALID,129,VALID,0,
2004-09-23, 02:54:00,VALID,916.021,VALID,0,VALID,98.8202,VALID,-0.0169808,VALID,18.9193,VALID,129,VALID,0,
2004-09-23, 02:55:00,VALID,916.005,VALID,0,VALID,98.9537,VALID,-0.0509425,VALID,18.9225,VALID,129,VALID,0,
2004-09-23, 02:56:00,VALID,915.996,VALID,0,VALID,99.1101,VALID,0.0169808,VALID,18.9372,VALID,129,VALID,0,
2004-09-23, 02:57:00,VALID,915.979,VALID,0,VALID,99.147,VALID,0.0169808,VALID,18.9566,VALID,129,VALID,0,
2004-09-23, 02:58:00,VALID,915.961,VALID,0,VALID,99.1,VALID,0.0169808,VALID,18.9598,VALID,129,VALID,0,
2004-09-23, 02:59:00,VALID,915.938,VALID,0,VALID,98.9461,VALID,0.0679233,VALID,18.9564,VALID,129,VALID,0,
2004-09-23, 03:00:00,VALID,915.922,VALID,0,VALID,98.6435,VALID,0.0339617,VALID,18.9149,VALID,129,VALID,0.0612282,
2004-09-23, 03:01:00,VALID,915.896,VALID,0,VALID,98.6562,VALID,0.0679233,VALID,18.892,VALID,131,VALID,0.289864,
2004-09-23, 03:02:00,VALID,915.879,VALID,0,VALID,98.6002,VALID,0.0339617,VALID,18.8766,VALID,131,VALID,0.134375,
2004-09-23, 03:03:00,VALID,915.855,VALID,0,VALID,98.5328,VALID,0.0169808,VALID,18.8508,VALID,136,VALID,0.271839,
2004-09-23, 03:04:00,VALID,915.818,VALID,0,VALID,98.6791,VALID,0.0509425,VALID,18.8208,VALID,171,VALID,0.786133,
2004-09-23, 03:05:00,VALID,915.791,VALID,0,VALID,98.9308,VALID,0.0849042,VALID,18.8277,VALID,166,VALID,0.672783,
2004-09-23, 03:06:00,VALID,915.759,VALID,0,VALID,99.2793,VALID,0.0509425,VALID,18.8468,VALID,148,VALID,0.929861,
2004-09-23, 03:07:00,VALID,915.736,VALID,0,VALID,99.3695,VALID,0,VALID,18.8697,VALID,133,VALID,0.76944,
2004-09-23, 03:08:00,VALID,915.723,VALID,0,VALID,99.2386,VALID,0.0339617,VALID,18.8637,VALID,127,VALID,0.827567,
2004-09-23, 03:09:00,VALID,915.706,VALID,0,VALID,99.4115,VALID,0.0169808,VALID,18.8439,VALID,127,VALID,1.08743,
2004-09-23, 03:10:00,VALID,915.698,VALID,0,VALID,99.4217,VALID,0.0339617,VALID,18.8342,VALID,131,VALID,0.63899,
2004-09-23, 03:11:00,VALID,915.69,VALID,0,VALID,99.4776,VALID,-0.101885,VALID,18.8294,VALID,131,VALID,0.651278,
2004-09-23, 03:12:00,VALID,915.682,VALID,0,VALID,99.5908,VALID,-0.0679233,VALID,18.8194,VALID,129,VALID,1.25833,
2004-09-23, 03:13:00,VALID,915.665,VALID,0,VALID,99.704,VALID,-0.0849042,VALID,18.8388,VALID,136,VALID,1.34566,
2004-09-23, 03:14:00,VALID,915.644,VALID,0,VALID,99.7536,VALID,-0.0169808,VALID,18.8483,VALID,151,VALID,1.11646,
2004-09-23, 03:15:00,VALID,915.624,VALID,0,VALID,99.826,VALID,-0.0509425,VALID,18.8935,VALID,147,VALID,1.07922,
2004-09-23, 03:16:00,VALID,915.597,VALID,0,VALID,99.7561,VALID,-0.0339617,VALID,18.9094,VALID,138,VALID,0.919643,
2004-09-23, 03:17:00,VALID,915.601,VALID,0,VALID,99.5704,VALID,-0.0509425,VALID,18.9387,VALID,126,VALID,1.2673,
2004-09-23, 03:18:00,VALID,915.572,VALID,0,VALID,99.4433,VALID,-0.0339617,VALID,18.9488,VALID,121,VALID,0.736683,
2004-09-23, 03:19:00,VALID,915.548,VALID,0,VALID,99.3352,VALID,-0.0509425,VALID,18.9521,VALID,124,VALID,0.640811,
2004-09-23, 03:20:00,VALID,915.531,VALID,0,VALID,99.236,VALID,-0.0169808,VALID,18.9424,VALID,110,VALID,0.731105,
2004-09-23, 03:21:00,VALID,915.505,VALID,0,VALID,99.105,VALID,-0.0509425,VALID,18.9258,VALID,123,VALID,0.68045,
2004-09-23, 03:22:00,VALID,915.496,VALID,0,VALID,99.2462,VALID,-0.0169808,VALID,18.9064,VALID,138,VALID,0.40625,
2004-09-23, 03:23:00,VALID,915.49,VALID,0,VALID,99.2589,VALID,-0.0339617,VALID,18.9131,VALID,115,VALID,0.462536,
2004-09-23, 03:24:00,VALID,915.477,VALID,0,VALID,99.4001,VALID,-0.0339617,VALID,18.9098,VALID,138,VALID,1.05673,
2004-09-23, 03:25:00,VALID,915.451,VALID,0,VALID,99.5654,VALID,-0.0509425,VALID,18.9325,VALID,175,VALID,1.06101,
2004-09-23, 03:26:00,VALID,915.466,VALID,0,VALID,99.5768,VALID,-0.0509425,VALID,18.9615,VALID,165,VALID,1.13021,
2004-09-23, 03:27:00,VALID,915.489,VALID,0,VALID,99.367,VALID,-0.0679233,VALID,19.0164,VALID,115,VALID,0.961124,
2004-09-23, 03:28:00,VALID,915.493,VALID,0,VALID,98.9486,VALID,-0.0849042,VALID,19.0196,VALID,98,VALID,0.87064,
2004-09-23, 03:29:00,VALID,915.509,VALID,0,VALID,98.8533,VALID,-0.0679233,VALID,19.0261,VALID,162,VALID,0.467478,
2004-09-23, 03:30:00,VALID,915.509,VALID,0,VALID,98.7719,VALID,-0.0679233,VALID,19.0492,VALID,159,VALID,0.36859,
2004-09-23, 03:31:00,VALID,915.55,VALID,0,VALID,98.6638,VALID,-0.101885,VALID,19.0556,VALID,114,VALID,0.406064,
2004-09-23, 03:32:00,VALID,915.585,VALID,0,VALID,98.384,VALID,-0.0679233,VALID,19.039,VALID,82,VALID,1.12984,
2004-09-23, 03:33:00,VALID,915.577,VALID,0,VALID,98.5379,VALID,-0.0509425,VALID,19.0258,VALID,154,VALID,1.06864,